Theta_e
290 290 289 289 288 288 287 287 288 287 289 287 287 287 287 287 287 287 286 287 286 288 287 287 286 286 286 286 286 286 286 286 286 286 286 287 287 291 297 300 302 305 307 311 313 314 316 317 317 318 319 319 319 319 319 319 320 321 321 322 323 323 323 322 322 322 322 323 324 324 325 325 326 326 328 329 330 332 334 337 339 340 341 342 342
290 289 289 288 288 287 287 287 287 287 287 288 287 286 286 286 286 286 287 286 286 289 286 286 286 286 286 286 286 286 285 286 286 286 286 286 287 289 294 297 300 304 306 308 311 312 314 315 316 317 318 318 318 318 318 319 320 320 320 321 322 322 322 321 321 322 322 322 323 324 324 324 324 325 326 326 327 328 330 331 335 338 339 340 341
290 289 288 288 287 287 286 286 286 286 287 287 288 287 286 286 287 286 286 286 286 286 286 285 284 285 286 285 285 285 285 286 286 286 286 286 286 287 289 294 298 301 304 307 308 310 311 312 314 315 316 317 317 316 316 318 319 319 319 319 321 321 320 319 320 321 321 322 322 322 323 323 323 324 324 325 325 326 327 329 330 332 335 338 339
290 289 289 288 287 286 286 286 286 286 287 287 287 286 287 286 286 286 286 285 285 285 286 284 284 285 285 284 285 285 285 285 285 286 286 286 286 286 287 290 294 298 301 304 307 309 310 310 312 313 315 315 315 314 314 316 318 318 317 318 320 320 319 318 317 318 319 320 319 319 320 320 321 321 322 323 323 324 324 326 328 329 331 334 337
289 289 290 287 286 286 285 287 286 287 286 286 287 286 286 286 287 286 285 284 285 285 286 284 284 284 284 284 285 285 285 285 285 285 285 285 285 285 286 288 288 294 297 300 303 307 309 308 308 309 313 312 312 312 313 314 316 317 317 318 318 319 319 317 316 317 318 317 317 317 317 318 319 320 321 322 322 323 323 324 325 327 328 330 332
289 288 288 287 286 286 285 285 285 286 287 287 285 285 285 286 286 286 289 285 284 284 283 283 283 283 283 284 284 284 284 285 285 285 285 285 285 285 286 286 287 288 291 297 300 303 306 306 306 308 309 308 309 311 312 313 315 315 315 315 316 317 317 317 317 317 316 315 315 316 316 317 317 318 319 320 321 322 323 324 324 325 326 327 328
289 289 288 287 286 285 285 285 286 286 285 285 285 285 286 285 284 283 283 283 283 286 283 283 283 283 283 284 284 284 284 284 284 284 284 284 285 285 286 286 287 288 292 290 295 298 302 304 305 306 305 305 306 308 310 311 312 313 313 313 313 314 315 315 316 316 315 314 314 314 315 316 317 317 317 318 319 319 320 322 323 325 326 327 328
289 289 288 287 287 286 285 285 286 286 285 284 285 285 285 285 284 283 283 283 284 282 283 282 283 283 283 283 283 285 284 283 284 284 285 285 285 285 286 287 288 290 294 290 291 293 298 301 302 302 303 304 305 307 309 310 310 311 311 311 312 313 314 314 313 314 314 313 312 313 314 315 315 316 316 317 317 318 318 319 320 321 323 324 325
289 288 288 287 286 285 284 285 286 285 284 284 284 285 284 285 284 285 282 282 282 282 282 282 283 282 283 282 283 284 283 283 284 285 286 284 284 285 286 287 290 292 288 289 289 289 293 297 299 299 299 302 304 305 305 307 308 309 309 310 311 311 312 312 312 312 311 311 311 311 313 314 314 314 315 316 317 317 318 318 319 319 320 321 323
289 288 288 287 286 285 284 285 285 284 284 284 284 285 283 283 283 283 282 282 281 281 282 282 283 283 282 282 282 282 283 283 284 288 283 284 284 285 286 285 286 286 286 286 286 286 287 290 294 294 295 299 302 302 303 305 305 307 309 309 309 310 310 310 310 310 310 310 311 311 312 313 313 314 314 315 316 317 317 318 319 319 319 320 321
288 288 287 287 286 285 285 285 285 284 284 284 283 283 283 282 283 282 283 282 282 282 281 282 282 282 282 282 282 282 282 284 284 282 283 283 285 287 285 284 283 284 285 285 285 285 285 285 285 285 287 296 300 300 301 302 302 303 306 307 308 309 309 309 309 309 309 309 310 311 312 313 313 314 314 315 315 316 316 317 318 319 319 320 320
288 287 287 287 285 285 284 284 284 284 283 283 283 282 282 282 282 283 283 282 282 282 281 282 281 280 282 282 281 281 281 284 282 282 283 282 282 283 283 284 283 283 284 284 284 284 285 285 286 285 287 290 296 297 297 298 298 300 303 306 307 308 309 308 308 308 308 309 310 311 312 313 313 314 314 314 314 315 315 316 317 317 318 319 320
288 287 286 287 286 285 284 284 284 284 284 284 283 282 282 283 284 283 281 279 280 280 281 280 279 278 279 280 280 281 285 284 282 282 282 282 282 282 282 283 283 283 283 284 283 285 285 285 285 285 286 285 287 292 294 295 294 297 301 303 305 307 307 307 307 307 308 308 309 310 311 312 312 313 313 314 314 314 314 315 315 316 316 317 318
288 287 286 286 285 284 284 284 284 283 283 283 281 284 283 282 283 280 280 279 279 280 281 279 279 278 278 279 279 280 284 281 282 282 282 282 282 282 282 283 283 283 283 283 284 284 285 285 285 285 285 285 286 286 286 287 289 295 298 301 303 304 305 306 306 307 308 308 308 309 310 311 311 312 312 313 313 314 315 315 315 316 316 316 316
287 287 286 286 285 285 284 284 284 284 283 282 282 282 282 282 281 281 279 280 281 282 280 279 277 278 278 278 276 277 281 279 279 281 281 282 281 281 283 282 282 282 283 283 283 283 284 284 284 284 285 285 285 285 285 287 288 292 294 295 297 300 303 305 306 307 308 307 308 309 309 309 310 311 312 312 313 314 314 315 315 315 315 316 316
287 286 286 285 285 285 284 283 283 284 283 282 282 282 282 281 280 281 281 279 278 279 281 279 278 278 277 277 276 277 276 277 276 279 279 280 281 280 281 282 281 282 283 282 282 283 283 283 283 283 284 285 285 284 285 285 288 290 291 292 293 297 300 303 304 305 307 307 306 306 307 309 310 310 311 311 312 312 312 313 313 314 314 315 315
287 286 286 285 285 284 284 283 283 283 283 282 282 282 282 282 281 281 279 279 278 277 280 280 279 281 278 276 275 277 276 276 276 276 277 279 279 280 284 282 280 282 281 281 281 281 282 282 282 282 283 283 283 283 284 284 284 287 286 288 292 294 297 301 302 304 305 305 305 305 307 308 308 309 309 310 310 311 311 312 312 313 313 314 314
286 286 286 285 284 284 284 283 283 283 283 282 282 281 281 281 281 281 279 279 279 278 277 281 280 281 279 277 277 276 275 275 276 275 277 279 278 280 280 280 280 280 280 280 280 281 282 282 281 282 282 282 282 282 283 283 285 284 285 288 293 295 295 297 300 302 303 303 304 305 305 305 307 307 308 308 309 309 310 311 311 312 312 313 313
286 286 285 285 284 284 283 283 283 283 283 281 281 281 281 281 281 280 279 281 279 278 278 278 278 279 279 278 280 279 278 276 274 275 275 276 276 277 278 278 279 279 279 280 280 280 280 281 281 281 281 281 281 282 282 282 286 287 289 290 292 294 295 295 295 297 300 301 302 303 303 304 305 306 306 306 307 308 308 309 309 310 311 311 312
286 285 285 285 284 283 283 283 283 282 283 281 281 281 281 281 281 280 280 281 279 279 278 278 278 278 279 278 279 278 278 277 277 276 275 273 275 276 277 277 277 278 280 279 279 279 279 279 280 280 280 281 281 281 281 282 282 282 284 290 291 293 294 294 294 294 296 298 300 300 302 303 304 304 304 305 306 307 307 308 309 309 310 310 311
286 285 285 284 285 283 283 282 282 282 283 281 280 280 280 281 280 280 280 280 278 278 279 278 278 278 278 276 277 276 276 276 277 277 276 274 274 275 275 276 277 279 278 278 278 279 279 279 280 281 282 281 280 280 281 281 281 281 286 290 291 292 293 293 293 293 293 293 295 297 299 302 302 303 304 304 305 306 307 307 308 309 309 310 310
285 285 284 284 284 283 283 282 282 282 283 281 280 280 280 280 280 280 280 279 279 279 278 278 278 278 278 278 276 276 276 275 275 275 276 275 275 274 275 275 275 276 277 279 278 278 279 279 279 279 279 279 279 280 280 280 281 283 286 289 289 290 291 291 292 292 292 292 293 294 296 299 300 301 302 303 304 305 306 306 307 308 308 309 309
285 285 284 284 284 283 283 282 282 282 283 280 280 280 280 280 280 279 279 279 279 279 281 278 278 278 277 278 278 278 276 275 275 275 274 274 274 274 275 275 275 275 276 278 279 279 279 279 278 278 279 279 279 280 279 279 284 286 286 287 288 288 289 291 291 291 291 292 293 294 295 295 297 298 300 302 303 304 305 305 306 306 307 307 308
285 284 284 284 284 283 283 282 282 282 282 281 280 280 280 280 279 279 279 279 279 280 278 278 278 278 278 277 277 277 277 276 277 276 276 275 275 274 274 275 275 275 277 277 278 278 277 277 278 278 279 279 279 280 281 281 282 285 284 284 286 287 288 290 289 289 290 291 292 293 294 294 295 295 297 299 301 303 304 304 304 305 306 306 307
284 284 284 283 284 283 282 282 282 282 282 281 280 280 280 280 279 279 279 278 279 279 279 278 278 278 278 278 277 277 277 277 277 277 276 276 276 274 274 275 273 274 275 276 275 277 278 277 278 278 278 278 280 279 280 279 279 283 284 282 284 284 285 286 287 289 289 290 290 291 292 293 293 294 296 297 299 301 302 303 303 304 305 305 306
285 284 285 284 284 284 283 282 282 282 282 281 280 280 280 280 279 279 279 279 279 279 279 279 278 278 278 277 277 277 277 277 277 277 276 275 274 274 274 274 274 273 275 274 275 275 276 277 277 278 277 277 278 278 278 278 278 282 283 280 280 282 284 286 288 288 289 289 289 291 291 291 292 293 293 296 298 298 300 301 303 303 304 304 305
286 285 285 284 284 283 283 282 282 281 281 281 281 280 280 280 279 279 279 279 278 279 278 278 278 277 277 277 277 277 277 277 277 276 277 276 275 275 274 272 272 273 273 274 274 275 276 276 277 277 277 278 278 277 277 277 279 282 281 278 277 280 282 285 287 288 288 288 289 289 289 289 290 291 292 293 295 296 298 299 301 302 302 302 302
286 285 285 284 284 283 283 282 282 281 281 281 280 280 280 279 279 279 278 279 278 278 277 277 277 277 277 277 277 276 277 277 277 276 276 276 276 276 275 274 271 270 272 272 273 274 276 275 275 276 276 277 277 276 279 278 278 281 280 277 277 277 281 284 286 287 288 288 288 288 288 288 289 290 290 291 292 293 294 294 295 295 295 296 296
286 285 284 284 284 283 283 282 281 281 281 281 280 280 279 279 279 278 278 278 278 278 277 277 277 277 276 276 277 276 276 276 276 276 276 276 276 276 276 274 274 271 270 270 272 273 274 275 275 276 276 276 276 278 277 276 279 280 277 277 277 276 279 283 285 286 287 287 287 287 287 288 288 289 289 290 291 291 292 293 293 293 294 295 296
286 285 285 284 283 283 282 282 281 281 281 280 280 280 279 279 279 278 278 278 277 277 277 277 276 276 276 276 276 276 276 276 276 276 276 276 275 275 275 275 275 273 272 271 271 274 273 276 277 277 277 276 277 277 277 276 280 279 277 276 276 276 281 283 283 284 285 286 286 286 287 287 287 288 289 289 290 291 292 292 292 293 294 295 297
285 284 284 283 283 283 282 282 281 281 280 280 280 279 279 279 278 278 277 277 277 276 276 276 276 276 276 275 275 275 275 275 275 275 276 275 275 275 275 275 275 274 273 272 270 273 275 274 275 276 276 276 276 276 276 276 277 278 276 276 276 279 280 279 281 282 284 284 285 285 286 287 287 287 288 288 290 290 291 292 292 292 293 294 295
284 284 283 283 283 282 282 281 281 280 280 280 279 279 279 278 278 277 277 277 276 276 275 276 276 275 275 275 275 274 275 275 274 275 275 275 275 275 274 274 274 274 274 272 271 271 275 274 274 275 276 275 275 274 274 275 277 278 276 275 276 279 277 276 278 281 282 283 284 285 286 286 287 287 287 288 289 290 291 291 291 291 292 293 294
284 283 283 283 283 282 282 281 280 280 280 279 279 279 278 278 277 277 276 276 276 275 275 275 275 275 275 274 274 274 275 274 274 274 274 274 274 274 274 273 273 273 273 272 270 270 272 275 274 274 274 274 273 274 273 273 274 275 277 275 275 275 275 275 275 279 281 282 283 284 285 286 287 287 288 288 289 289 290 290 290 290 291 292 293
284 283 283 283 282 282 281 281 280 280 279 279 279 278 278 277 277 277 276 276 275 275 275 274 274 275 275 274 274 274 274 274 273 273 273 273 273 272 272 272 272 272 273 271 270 270 269 272 272 274 273 274 272 274 272 273 273 275 274 275 275 275 275 275 275 276 280 282 283 284 285 287 287 288 288 288 288 289 289 290 290 290 290 291 291
283 283 283 282 282 281 281 280 280 279 279 279 278 278 278 277 276 276 276 276 275 274 274 274 274 274 274 274 273 273 273 272 272 272 272 272 272 271 271 272 271 271 271 272 270 268 269 269 272 271 272 273 272 272 273 274 274 274 274 274 275 276 276 276 276 276 280 282 284 284 286 286 287 287 288 288 288 288 288 289 289 289 289 290 290
282 283 283 282 281 281 280 280 279 279 279 278 278 278 277 277 276 276 275 275 275 274 274 274 274 274 273 273 273 272 272 272 271 271 271 271 271 271 271 271 271 271 271 271 271 270 269 268 270 271 272 272 273 273 274 275 274 274 274 275 275 275 275 276 276 276 278 282 283 284 285 285 286 286 287 287 287 287 288 288 288 288 289 289 289
282 282 282 282 281 281 280 280 279 279 278 278 277 277 277 277 276 276 275 275 275 274 274 274 275 273 273 273 272 272 272 271 271 270 271 270 271 270 270 270 270 271 271 271 270 270 269 268 269 272 273 273 274 274 274 273 274 274 275 275 275 275 275 276 276 277 280 282 283 283 283 284 285 285 286 286 286 287 287 288 288 288 288 288 288
282 282 281 281 281 280 280 280 279 279 278 278 277 277 277 276 276 275 275 275 274 274 274 273 274 273 273 272 272 271 271 270 270 270 270 270 270 270 270 270 270 270 270 270 270 270 270 269 270 270 272 272 273 273 274 274 273 273 274 275 275 276 275 275 276 278 278 278 277 278 280 281 282 283 285 285 286 287 287 287 287 287 287 287 287
281 281 281 281 281 280 280 280 279 278 278 277 277 276 276 275 275 275 274 274 274 273 273 273 273 272 272 272 271 271 271 270 270 270 270 270 270 270 270 270 270 270 270 270 270 270 270 270 271 271 271 273 273 272 273 275 275 274 273 274 274 276 277 277 276 278 278 278 280 282 281 281 282 282 283 284 285 286 286 286 286 286 286 286 286
281 281 281 280 280 280 280 279 279 278 278 277 276 276 275 275 274 274 274 273 273 272 272 272 272 271 271 271 271 271 271 271 270 270 270 270 270 270 270 270 270 270 270 270 271 271 270 271 271 271 272 272 273 274 275 274 274 275 276 275 273 274 275 276 276 276 277 277 277 277 280 280 280 281 282 283 284 284 284 284 284 283 283 284 285
282 281 281 281 280 279 279 279 278 278 277 277 276 276 275 274 274 273 273 272 272 271 271 271 271 271 270 270 271 271 271 273 274 274 273 273 270 269 270 271 270 271 271 271 270 270 270 271 271 273 273 273 274 273 273 273 273 273 275 276 275 275 274 274 275 277 277 276 276 276 276 277 276 277 277 277 277 280 280 282 282 282 283 284 285
281 281 280 280 280 279 279 278 278 277 277 277 278 280 279 274 273 273 272 272 271 271 270 270 270 270 270 270 271 274 274 275 275 275 276 275 275 272 271 272 272 272 272 271 270 270 271 271 272 273 272 272 272 273 273 274 275 276 275 274 272 273 274 273 275 276 278 277 275 275 276 278 277 276 277 276 278 279 278 278 278 280 281 284 285
281 280 280 279 279 279 278 277 277 276 276 276 280 282 281 280 275 273 272 271 271 270 270 269 269 269 270 270 270 273 274 275 275 276 277 277 277 276 276 276 276 274 272 272 272 273 273 272 273 273 272 272 273 274 274 275 275 274 273 273 273 273 272 272 270 274 277 276 275 275 275 278 277 276 276 277 277 277 278 278 282 283 284 285 286
280 280 279 279 279 278 278 277 276 276 276 279 281 282 282 281 278 273 272 271 270 270 270 270 269 270 270 270 271 272 274 274 274 275 277 278 278 279 279 279 280 280 280 277 275 274 274 273 273 273 273 273 273 274 275 274 273 273 274 274 274 273 273 272 272 271 276 278 276 274 273 277 278 277 276 277 277 278 278 281 284 284 285 286 286
280 279 279 279 278 278 277 276 276 276 275 280 282 283 283 282 280 275 271 271 270 270 270 270 270 270 271 271 272 273 274 276 276 275 275 276 278 279 279 279 279 279 279 280 280 278 276 274 273 273 274 274 274 274 274 274 275 273 274 274 274 273 273 273 273 274 275 276 274 272 271 273 275 274 274 276 277 277 278 281 283 284 285 285 286
279 278 277 277 277 277 277 276 276 275 275 279 282 283 283 282 281 277 271 271 271 270 271 271 271 272 273 273 273 273 274 275 275 275 274 274 274 275 275 274 273 275 277 278 278 278 277 275 274 273 275 275 273 274 275 276 275 274 273 273 274 274 273 272 273 272 273 274 271 270 268 270 273 273 272 273 275 275 276 279 283 284 285 285 286
278 277 276 276 276 276 275 275 275 274 273 280 283 283 283 283 281 277 270 271 271 271 271 272 273 274 274 274 274 274 274 274 275 275 274 274 273 272 272 272 272 273 273 274 274 275 275 276 275 275 275 275 275 275 276 277 276 276 276 275 274 272 271 271 270 271 270 272 271 270 266 269 272 271 272 273 274 275 276 279 282 283 284 284 285
276 276 275 275 275 274 275 274 274 273 273 280 283 283 284 283 282 273 271 271 271 271 272 273 274 275 275 275 274 274 274 274 276 277 276 274 272 271 271 272 273 273 274 276 278 278 277 276 276 276 276 277 279 278 278 278 277 278 276 274 272 270 267 266 265 268 268 271 272 270 268 269 272 271 271 273 274 274 275 276 280 283 284 284 285
275 275 275 275 275 274 274 274 273 272 272 279 283 284 284 283 281 272 271 271 272 272 273 274 275 275 275 275 275 274 274 273 276 278 278 276 272 271 271 272 273 273 273 275 277 278 279 280 280 280 280 280 280 280 280 281 278 277 272 269 267 267 266 265 265 266 266 269 271 271 269 268 271 272 272 274 274 274 274 275 277 281 283 284 285
274 274 274 274 274 274 273 272 273 272 271 277 283 284 283 284 279 271 271 272 272 273 273 274 275 275 275 276 275 273 273 273 277 278 279 277 274 273 273 273 272 271 272 274 275 276 278 278 278 278 278 278 278 278 278 277 277 276 269 266 267 267 265 265 263 265 266 268 269 272 269 269 271 271 270 270 271 271 272 274 276 277 281 282 283
273 273 272 272 271 271 272 272 274 273 272 275 282 284 284 284 278 272 272 272 272 272 273 273 274 274 274 276 276 274 274 274 277 278 279 277 274 274 273 272 271 271 272 274 274 273 273 272 272 273 274 274 272 270 271 274 274 272 269 268 267 265 263 264 264 265 264 266 270 273 268 268 269 269 269 267 266 269 272 272 274 275 276 278 279
Wind_Speed
7 6 6 6 6 5 6 6 5 6 4 4 4 5 4 4 3 3 3 3 4 4 3 3 3 3 4 3 3 4 4 4 4 4 4 5 5 7 12 13 13 13 12 11 10 10 11 10 10 10 11 12 12 12 13 13 13 14 14 14 14 14 14 14 14 14 15 15 15 15 16 16 17 17 18 18 19 20 21 20 18 17 16 15 15
7 6 7 7 6 5 5 5 6 4 5 5 4 5 5 4 3 3 4 4 5 3 3 4 4 3 4 3 3 4 3 4 4 4 3 4 5 5 10 12 12 12 12 11 10 10 10 10 10 10 10 11 11 12 13 13 13 13 14 14 14 14 14 15 15 15 14 14 15 16 16 16 16 16 17 17 18 19 19 20 20 19 18 17 16
6 7 5 6 6 6 6 5 6 5 5 5 3 4 4 4 4 4 4 5 5 3 5 4 4 4 4 4 4 4 4 4 4 4 4 5 4 4 5 10 11 11 11 11 10 9 10 10 11 11 11 11 11 12 13 13 13 13 14 14 13 13 14 15 16 16 16 16 17 17 17 17 17 17 17 17 18 19 19 20 20 20 20 19 18
6 6 6 7 6 6 5 6 6 4 4 4 4 3 4 3 4 4 3 4 5 5 4 5 4 5 4 4 4 5 5 5 4 4 4 5 5 4 4 5 8 11 11 12 12 11 11 11 11 11 11 11 12 13 13 13 13 13 14 14 13 13 13 15 15 15 15 16 16 17 17 18 18 17 17 17 17 17 18 19 20 20 20 21 21
7 7 6 6 6 6 6 5 5 5 4 4 4 4 4 4 4 3 5 4 5 5 3 4 5 5 4 4 5 5 4 4 4 4 5 5 5 5 5 4 4 8 10 11 11 12 12 12 12 12 13 12 13 13 13 13 12 13 13 13 13 13 13 15 14 14 15 16 17 17 17 17 17 17 17 17 17 16 17 17 18 19 19 20 20
7 6 6 6 6 6 6 6 6 5 5 5 6 4 5 5 4 5 3 4 4 3 4 5 4 3 4 4 4 4 4 5 4 4 4 5 5 5 5 5 5 5 5 8 10 12 13 13 12 12 13 13 13 14 14 13 13 13 14 14 14 14 14 14 14 14 16 18 18 18 17 17 17 17 17 17 17 17 17 17 17 18 19 19 19
7 8 7 7 7 6 6 6 6 4 5 5 5 5 5 5 5 6 3 4 3 3 3 4 4 6 5 4 5 5 4 5 4 5 5 5 5 4 5 5 5 4 4 4 6 9 12 13 13 13 14 14 14 14 14 13 14 14 15 15 15 15 14 15 15 15 16 17 18 18 17 17 17 18 18 18 18 18 17 17 17 18 18 19 19
8 7 7 7 7 7 6 5 5 5 5 4 4 5 5 4 3 4 6 3 4 3 3 3 3 4 4 4 4 4 4 4 5 5 4 5 5 5 5 5 5 5 5 5 5 6 12 12 13 14 14 14 14 14 15 15 15 15 15 15 15 15 16 16 16 17 17 18 18 18 17 17 17 18 18 18 18 18 18 17 17 17 17 18 19
8 8 7 8 7 6 5 5 4 5 5 4 4 4 5 5 3 1 3 5 3 2 1 2 2 3 3 3 3 3 4 4 4 4 4 4 4 5 5 5 4 5 6 6 6 6 8 12 11 12 13 15 16 16 17 17 16 16 16 16 16 16 17 18 18 17 17 18 19 19 18 18 18 18 18 18 18 18 18 17 17 17 17 17 17
8 8 7 6 6 6 5 6 5 5 5 5 5 4 4 5 5 2 3 4 3 3 1 0 1 2 3 3 3 3 3 3 2 2 3 4 5 4 4 3 5 6 6 5 5 6 5 7 10 11 13 16 17 17 17 17 17 17 16 16 17 17 17 17 18 18 18 19 20 20 19 19 19 19 19 19 19 18 18 18 18 17 17 17 17
9 8 8 7 7 6 6 6 5 6 6 5 5 4 4 3 5 4 2 3 4 3 1 0 0 1 3 3 2 3 1 1 2 2 3 2 2 3 3 6 5 5 5 5 5 5 5 6 7 7 9 16 17 18 18 18 18 18 17 17 17 17 17 17 17 18 19 20 20 20 19 19 19 20 20 20 19 19 19 18 18 18 18 18 18
9 8 8 8 8 7 7 6 6 6 7 7 6 6 7 6 5 6 6 3 2 1 0 1 1 4 3 4 3 3 3 2 3 3 3 4 4 4 6 4 5 4 4 5 4 4 6 7 7 7 7 10 15 16 18 18 18 18 18 18 17 17 17 17 18 19 19 20 20 20 20 20 20 20 20 21 21 20 20 20 19 19 18 18 19
8 8 9 8 7 7 7 6 6 7 7 8 7 6 5 6 6 3 4 3 2 3 1 1 3 2 3 4 5 3 3 2 4 3 5 3 4 6 5 5 5 5 5 4 5 7 7 7 7 7 7 7 8 12 15 17 17 18 18 18 18 17 18 18 19 20 19 19 20 20 21 21 21 21 21 21 21 21 22 22 21 20 20 19 19
9 8 8 8 8 8 8 8 8 7 5 4 4 4 5 5 6 4 2 3 1 3 3 1 5 2 2 4 6 5 3 3 2 0 3 3 3 5 4 5 6 5 6 6 6 6 6 6 6 6 6 6 6 6 7 8 10 18 19 19 18 18 19 19 19 19 20 20 20 21 21 21 22 22 22 22 22 21 21 21 21 21 21 21 20
9 9 8 8 8 8 8 7 7 7 7 7 6 6 6 7 5 6 5 3 2 1 3 2 3 2 1 3 3 3 2 4 2 1 1 2 2 3 2 5 5 4 4 5 6 6 5 6 6 6 6 6 5 6 6 6 8 15 18 18 18 18 18 18 19 19 20 20 21 21 22 22 22 22 22 22 22 22 22 22 22 21 21 21 21
9 9 8 8 8 9 7 7 8 7 7 8 8 8 7 6 4 4 7 4 1 1 2 3 3 5 2 2 1 1 1 1 4 6 2 2 3 1 1 3 3 4 4 5 4 4 5 5 6 6 5 5 5 6 6 6 10 11 12 13 17 18 18 18 18 19 20 20 21 22 22 22 23 23 23 23 24 24 24 24 24 23 23 22 21
10 10 9 9 8 8 8 8 8 7 7 7 8 9 8 7 7 7 5 8 4 1 0 1 1 1 5 4 2 1 2 1 2 5 3 1 1 1 1 2 2 3 3 4 3 3 3 4 5 5 4 4 4 4 5 6 6 6 8 11 14 16 17 17 18 19 20 21 21 21 22 23 23 24 24 25 25 25 25 24 24 23 23 22 22
9 10 9 8 9 8 8 8 8 8 7 7 6 5 6 8 8 7 5 3 7 5 2 0 2 2 2 1 2 2 5 2 1 1 4 1 3 1 1 1 0 0 2 3 4 3 3 4 4 5 4 3 3 4 4 5 5 6 6 8 16 15 15 16 18 19 20 21 21 22 22 23 24 24 25 25 25 26 26 26 25 25 24 23 23
9 9 9 8 8 8 8 8 7 7 6 6 7 8 7 7 5 5 5 6 6 5 8 5 2 2 3 3 5 4 5 6 3 2 3 4 1 1 2 3 1 1 3 4 4 3 3 3 5 5 4 3 3 3 4 4 6 6 9 12 13 13 14 16 17 18 20 20 21 22 23 23 24 25 26 27 27 27 27 27 27 27 26 25 25
10 10 10 9 9 8 8 8 8 7 7 8 8 6 5 4 4 4 4 6 7 9 7 7 7 4 2 4 5 4 4 5 3 5 3 1 6 2 2 3 1 4 5 5 3 3 3 3 5 5 4 2 2 3 3 3 3 4 5 10 11 12 14 15 16 17 18 21 22 23 23 24 24 25 26 26 27 27 28 29 29 29 28 28 27
10 11 10 10 9 10 9 8 8 8 8 7 6 6 8 8 7 6 7 6 4 4 8 8 6 8 7 2 5 4 4 2 3 3 4 3 5 3 2 3 4 6 6 4 3 3 2 5 6 5 3 3 3 2 2 3 3 3 4 9 10 12 13 14 16 17 18 20 21 22 22 23 24 25 26 26 26 27 28 28 29 30 29 29 28
10 10 11 11 11 10 10 11 10 9 8 8 6 7 7 7 7 7 6 7 4 6 7 7 6 6 7 8 6 4 3 2 2 3 1 3 6 4 1 2 8 3 0 8 4 3 4 5 6 5 4 3 3 2 2 2 2 2 3 9 10 12 14 16 18 18 19 19 19 20 21 22 23 25 25 26 26 26 26 27 28 29 30 30 29
10 10 11 11 11 11 11 10 9 9 9 8 9 9 8 7 6 5 6 8 6 6 4 4 6 7 7 8 10 10 9 7 8 6 5 3 2 5 2 3 3 11 2 0 6 9 6 6 5 5 3 4 3 2 1 1 2 4 11 11 12 14 17 18 18 18 18 19 19 20 21 22 23 23 24 25 25 25 26 27 27 28 29 29 29
10 10 11 12 11 11 10 10 10 10 10 9 8 8 8 7 7 7 7 6 6 6 6 8 8 7 7 6 6 6 5 6 7 7 7 5 4 5 4 1 5 6 4 5 6 9 5 4 5 4 4 3 3 0 0 1 3 9 5 10 13 15 16 18 19 18 19 19 20 20 21 22 23 24 25 26 26 27 27 28 28 28 29 29 29
12 13 14 15 13 12 12 12 11 10 10 9 9 9 9 8 8 8 8 9 9 9 9 10 11 10 9 6 5 5 6 5 6 7 5 5 5 1 2 2 4 7 2 1 2 3 6 5 5 5 3 3 1 2 3 3 1 7 9 5 12 14 16 17 18 18 18 19 20 21 22 23 24 25 26 26 27 27 28 27 28 28 29 29 29
14 16 15 14 13 13 13 12 11 11 11 11 10 10 9 10 9 10 11 9 8 10 9 8 7 5 5 7 6 6 6 6 6 7 7 7 5 5 1 2 1 8 7 5 2 5 2 3 4 4 3 1 2 3 3 2 1 6 9 5 7 13 16 17 18 19 20 20 21 21 22 23 25 26 26 27 27 27 28 28 28 29 29 29 30
13 12 10 14 14 12 13 13 12 12 11 11 10 10 10 9 9 10 8 8 9 9 7 8 8 8 7 7 7 6 6 7 7 7 7 7 7 6 6 2 3 3 5 2 6 5 10 3 3 4 3 3 4 3 2 1 2 8 9 5 5 13 16 18 20 21 21 21 22 23 24 24 25 27 26 27 27 28 28 29 29 30 30 30 31
10 10 12 13 14 14 13 14 13 12 12 12 12 11 11 11 9 8 10 6 8 9 7 7 8 8 7 6 6 6 6 7 6 6 6 6 6 6 6 6 5 4 3 5 4 6 6 5 3 2 3 5 3 3 2 2 2 10 9 7 7 8 15 20 21 22 22 22 23 24 25 25 26 27 27 28 28 29 29 30 30 30 30 31 31
11 10 12 12 13 13 13 13 13 13 12 12 12 11 11 10 10 10 10 7 8 9 7 8 7 7 6 7 6 6 6 6 6 6 6 6 6 6 7 8 6 5 2 3 3 4 4 5 3 2 2 2 1 0 1 1 4 8 5 6 6 6 13 20 21 21 22 23 24 24 25 26 26 27 28 28 29 29 30 30 30 31 31 31 32
9 10 11 13 12 13 12 13 12 12 14 12 12 12 11 10 10 9 8 8 8 6 6 7 7 6 6 5 5 6 5 6 7 6 6 6 6 6 6 6 6 8 6 5 6 3 6 3 4 3 1 1 3 5 5 6 13 14 9 8 8 9 18 21 21 22 22 23 23 24 25 25 26 27 28 29 29 29 31 31 31 32 32 32 32
11 11 11 12 12 13 12 12 12 13 12 13 12 12 12 11 10 9 8 9 9 8 7 7 6 7 7 7 5 5 6 6 6 6 6 6 6 6 5 5 6 6 6 4 4 5 5 5 2 1 1 1 2 2 4 6 9 11 9 10 10 16 21 16 20 22 23 24 25 26 26 27 28 28 29 29 30 31 32 32 33 33 33 34 33
10 11 12 13 13 13 12 12 12 12 13 13 13 13 12 11 10 10 9 10 10 9 8 7 7 7 8 8 7 7 6 6 6 6 6 5 5 6 5 5 5 4 4 6 9 12 3 4 4 4 5 4 6 7 7 4 4 8 5 7 9 14 10 9 14 19 21 23 24 25 26 26 27 29 29 30 31 31 33 33 34 33 34 34 33
13 13 13 14 14 13 13 13 13 13 13 13 12 12 12 11 10 10 10 11 11 9 8 9 7 8 8 8 7 6 6 7 6 6 6 6 5 5 5 5 5 4 5 6 9 11 8 7 7 5 2 1 3 3 7 5 6 6 7 7 7 7 8 8 8 14 20 22 24 25 26 27 27 28 29 29 30 31 32 33 33 33 33 33 33
13 14 14 13 13 14 14 13 13 12 12 12 12 12 13 13 12 9 11 12 11 10 10 10 10 8 8 9 8 7 6 7 7 7 6 6 6 6 5 6 6 6 5 6 8 8 11 4 8 5 3 3 4 3 5 7 7 7 8 8 7 7 7 8 9 9 17 22 24 25 26 26 27 27 28 28 29 30 32 32 32 32 33 34 33
12 13 14 14 14 14 13 14 14 13 14 13 12 12 13 14 14 12 12 13 13 13 12 12 12 9 9 9 8 7 6 7 6 6 6 7 6 6 6 5 6 5 5 6 5 6 8 8 5 7 3 3 3 4 5 6 7 7 9 8 8 7 7 9 10 9 16 22 24 24 26 26 26 26 27 29 30 30 31 32 33 33 33 34 34
14 13 14 14 14 15 15 14 15 14 14 13 13 12 13 14 13 13 13 13 12 12 13 12 12 11 11 10 9 9 7 8 7 7 6 6 6 6 6 5 5 5 4 4 6 7 5 8 4 4 5 5 4 5 6 6 7 7 7 9 7 9 9 8 10 10 12 20 22 23 25 25 26 27 28 29 30 31 30 30 31 32 32 33 33
14 13 13 13 14 15 16 17 16 15 15 14 14 13 12 11 12 12 12 12 12 12 11 11 11 12 11 11 10 9 9 8 7 7 7 8 6 6 6 5 5 4 4 5 6 6 8 9 10 6 6 6 5 5 4 7 8 8 8 9 9 9 9 8 8 8 14 20 22 24 24 25 26 28 29 29 29 29 29 31 32 32 32 32 32
12 13 14 13 15 17 16 15 16 15 14 14 14 14 13 11 11 10 10 11 11 10 10 10 10 10 10 9 10 10 10 10 9 8 8 9 7 7 7 6 5 4 5 6 6 7 8 9 8 10 5 8 7 4 3 4 8 12 10 8 7 6 7 7 7 7 7 8 8 10 14 19 22 26 26 26 29 31 31 31 31 31 30 31 32
14 13 13 15 14 15 16 15 15 16 15 14 14 14 13 12 12 12 11 10 9 9 8 9 9 9 8 8 9 10 10 9 10 10 9 8 7 7 7 6 5 5 6 6 6 7 7 8 7 7 8 5 6 9 2 5 7 7 12 13 9 4 7 9 11 8 7 10 13 20 20 19 23 21 26 30 30 30 30 30 30 30 31 32 32
14 16 17 17 15 14 14 15 14 13 14 14 14 14 14 14 13 13 12 11 10 9 8 8 8 9 9 9 9 9 9 9 9 8 9 8 7 7 5 5 5 5 6 6 6 5 6 6 6 9 7 10 8 5 5 3 5 5 6 10 16 14 12 9 8 13 12 11 13 11 11 15 16 20 24 26 29 28 30 31 32 34 35 35 35
13 14 14 14 14 14 14 15 15 14 15 15 14 15 15 14 13 13 13 12 11 11 9 9 8 8 8 8 8 8 9 10 13 10 9 8 6 6 5 5 5 6 6 5 4 4 4 6 7 7 9 9 8 8 8 7 9 12 10 11 16 13 13 16 11 6 10 14 13 12 11 7 10 12 11 11 13 18 22 28 25 33 34 34 34
14 13 13 13 14 15 15 14 13 13 13 12 14 22 18 15 14 12 11 11 11 11 11 10 9 9 9 8 8 14 15 15 13 13 13 13 11 7 5 5 7 7 6 5 5 4 5 5 5 9 10 9 9 9 9 9 9 9 12 11 14 15 14 14 14 6 6 11 13 14 12 7 10 13 11 12 11 12 12 13 14 18 24 32 35
13 12 13 15 16 15 16 16 16 14 12 11 21 24 24 22 15 13 13 12 11 11 11 12 12 11 9 8 7 11 13 13 11 14 13 14 13 14 15 14 11 7 6 7 6 5 5 6 7 9 10 13 12 10 12 10 9 11 11 12 11 13 16 16 17 11 5 9 21 20 13 2 4 13 13 12 9 11 13 13 22 28 34 34 35
13 12 15 16 14 14 13 14 14 14 13 15 24 25 25 25 20 13 11 11 11 11 11 11 9 9 10 9 8 7 9 10 9 10 12 15 15 16 16 16 15 15 13 8 6 5 5 6 7 6 10 12 13 12 11 9 11 14 11 11 13 14 14 14 16 15 10 10 16 23 26 10 6 12 17 15 9 11 15 22 32 33 34 35 35
12 14 15 13 15 14 14 16 15 14 13 19 25 26 25 26 25 17 11 11 12 11 11 11 11 10 9 9 9 8 7 15 11 9 8 9 14 17 15 14 14 14 13 15 15 9 6 7 8 10 10 11 12 11 9 11 13 16 15 13 12 11 15 17 13 15 13 12 16 21 25 18 6 12 16 19 11 11 15 22 31 32 33 33 34
13 13 13 15 14 14 15 15 15 13 13 19 26 26 25 26 26 19 11 12 11 11 12 11 10 11 11 10 10 9 9 11 10 10 8 8 7 7 7 5 2 5 10 13 14 16 14 10 9 11 10 7 12 13 13 12 14 12 14 15 11 12 10 13 16 16 16 10 12 18 23 21 5 9 15 17 13 16 16 21 32 33 33 34 34
14 15 15 15 14 13 12 12 11 12 11 22 25 26 26 26 26 18 11 10 10 10 10 10 10 10 11 10 10 10 11 11 10 12 10 10 8 7 6 5 5 5 6 7 8 8 9 8 8 10 12 11 13 13 11 10 11 13 13 13 11 12 15 16 16 14 13 9 10 12 20 21 8 10 16 15 12 14 12 19 30 33 34 35 35
8 7 8 9 12 13 12 12 12 12 11 24 25 26 26 26 27 14 12 12 11 10 10 11 10 10 10 10 10 10 11 11 14 19 14 8 8 8 8 7 6 6 7 8 12 12 11 10 9 10 9 10 15 15 15 14 13 11 10 11 13 13 15 14 16 11 11 8 8 11 17 17 12 14 19 15 12 15 15 13 22 32 32 34 35
9 10 10 10 10 11 12 12 13 11 10 20 26 26 27 29 20 11 11 10 10 11 11 11 11 11 10 11 11 10 11 11 16 20 19 16 9 11 9 8 6 5 5 5 12 17 18 18 19 20 21 22 21 22 23 25 17 14 12 13 13 9 12 14 16 14 12 7 7 11 15 18 14 15 16 17 16 20 20 18 15 23 30 32 33
10 10 8 8 8 9 12 13 13 12 11 18 26 26 28 30 19 15 13 12 11 11 11 10 10 10 11 18 14 10 11 10 17 20 21 17 11 11 9 7 6 6 6 6 7 7 12 15 17 19 21 22 22 19 17 18 23 20 10 13 12 8 12 11 14 16 15 11 9 11 15 12 14 15 16 16 20 16 15 14 16 18 24 26 33
9 8 8 9 8 8 9 11 13 13 11 15 25 26 28 28 18 12 12 12 13 12 11 11 9 8 10 15 18 14 11 13 19 20 21 16 8 8 8 7 6 7 7 7 5 4 4 7 8 9 9 9 7 8 12 20 21 18 11 11 9 8 11 12 11 14 16 13 3 5 13 13 15 15 14 15 18 17 15 13 15 14 14 13 12
Wind_Direction
156 156 145 144 142 143 144 144 139 147 141 151 147 151 149 155 144 129 114 95 80 62 57 52 43 39 39 25 22 21 19 15 10 1 358 350 345 339 346 346 348 352 358 1 10 15 20 22 25 28 28 28 25 25 21 16 16 15 13 12 12 17 17 17 15 13 11 8 6 5 4 2 1 360 358 356 353 352 350 343 333 326 321 316 311
160 157 155 156 154 149 146 152 152 156 148 151 170 152 151 140 119 97 89 78 67 48 55 44 32 27 25 21 19 16 18 12 4 359 348 349 344 340 343 343 344 348 352 358 12 19 21 22 26 26 27 26 25 24 20 17 16 14 13 12 11 16 18 17 15 13 12 10 9 8 6 4 3 1 359 356 354 351 349 347 344 336 327 321 317
160 161 156 155 156 155 158 156 155 169 162 156 161 148 132 110 104 93 81 75 65 46 47 40 23 19 11 13 4 8 18 14 4 354 350 345 346 344 337 340 341 343 345 351 11 19 23 25 23 21 22 23 24 21 19 15 14 14 13 11 9 15 16 15 14 13 12 12 11 9 7 7 6 4 2 1 359 357 353 349 345 342 339 330 323
161 164 162 161 162 162 160 158 169 169 159 153 136 120 104 95 84 78 71 71 59 44 37 42 23 10 358 5 358 8 11 8 3 353 343 344 345 343 340 333 336 339 342 346 1 9 19 22 18 18 19 21 22 16 17 15 12 13 11 9 7 12 13 14 11 10 10 10 8 6 4 2 360 359 358 358 358 356 354 352 349 345 342 340 336
169 167 166 165 160 159 163 171 170 165 156 147 127 115 100 90 73 70 59 53 53 32 29 48 29 359 356 355 359 4 5 5 358 354 350 342 345 338 335 337 335 337 340 346 355 3 13 17 13 15 20 22 18 12 12 12 12 12 13 10 9 9 8 8 7 8 10 10 6 3 360 358 356 355 354 355 355 355 353 350 348 347 345 342 339
163 166 163 163 165 168 169 172 174 167 152 144 136 137 120 108 103 83 69 70 70 37 33 22 5 346 357 348 2 360 359 359 360 351 344 347 337 338 335 338 342 340 336 342 353 2 10 13 14 18 20 18 13 7 7 9 10 10 10 7 5 3 2 4 4 7 8 8 5 2 358 356 354 352 352 351 352 353 353 353 349 347 345 343 339
170 165 169 168 168 172 178 180 169 160 151 154 137 130 125 127 127 105 92 75 71 52 49 38 3 353 345 349 351 349 6 1 352 359 358 343 341 339 339 338 340 340 337 345 353 358 9 15 21 21 18 13 6 3 5 8 7 5 3 360 358 357 357 1 2 3 4 5 2 359 357 355 354 353 352 350 348 347 348 349 350 349 347 345 342
172 167 167 176 174 177 181 168 166 152 148 141 131 136 131 118 114 128 105 71 68 38 28 26 1 344 333 349 348 357 3 3 2 358 352 345 350 346 345 345 345 345 359 0 3 359 6 15 18 19 16 11 6 5 7 6 4 0 358 356 356 356 357 358 358 358 359 0 359 356 354 353 352 351 349 347 346 344 343 342 343 344 344 344 343
175 174 169 175 176 172 171 168 161 155 149 148 137 142 135 122 96 95 115 127 106 103 35 16 351 323 317 352 360 6 13 9 4 357 349 4 353 352 349 351 347 2 6 7 5 0 357 9 16 17 15 11 8 8 6 2 0 357 355 355 355 353 354 354 354 354 356 357 354 352 350 350 349 348 346 344 343 341 341 340 340 339 338 338 339
176 174 174 175 169 166 165 167 162 155 149 146 146 139 126 130 119 95 121 124 123 116 86 343 319 313 336 2 358 19 16 23 22 8 19 3 358 356 345 346 9 14 12 11 4 355 356 357 7 13 14 9 8 8 5 2 0 356 354 354 353 351 351 351 352 353 355 353 350 349 347 347 346 345 343 342 340 339 338 339 338 338 337 335 335
176 174 171 170 167 168 168 171 162 155 149 144 143 146 138 138 133 124 112 128 134 150 156 187 193 330 343 355 359 4 22 79 83 37 22 12 358 1 14 17 17 16 12 9 355 354 354 2 7 9 4 4 7 6 2 360 358 354 351 350 350 351 351 352 354 354 352 348 347 347 346 345 344 343 341 340 339 338 337 336 336 336 336 335 333
177 174 171 170 170 174 170 167 164 157 158 158 165 167 162 147 154 141 132 100 60 124 70 147 100 53 11 357 32 2 23 99 89 79 43 43 30 24 24 2 31 9 13 353 351 354 7 7 8 4 4 358 1 3 359 357 355 351 350 350 352 352 353 356 355 351 346 345 346 346 346 345 343 342 340 339 338 337 336 335 334 334 335 334 333
176 171 177 174 173 166 163 169 167 168 171 178 170 167 165 157 148 132 131 105 32 13 4 73 71 13 7 7 5 6 32 64 110 71 44 27 44 29 6 23 27 23 356 350 9 10 9 4 0 0 359 356 353 357 358 355 352 350 350 352 354 354 355 353 349 345 344 346 346 346 345 343 342 340 339 338 336 335 334 333 332 332 331 331 331
175 179 176 173 169 172 174 175 172 174 170 155 161 165 156 158 154 90 37 127 94 349 339 63 28 85 51 340 352 355 21 60 97 357 19 17 42 29 354 31 25 7 0 10 7 5 0 357 357 356 348 348 348 353 353 349 346 348 350 354 354 352 349 347 345 345 346 346 345 345 344 342 340 338 337 335 334 332 331 330 329 329 328 328 328
176 179 176 179 177 172 180 171 173 164 158 167 173 170 174 171 178 143 106 56 97 2 4 43 133 96 117 81 354 16 338 7 343 334 14 346 61 28 350 43 20 9 356 7 359 355 351 354 350 346 336 340 344 349 348 343 339 347 351 353 351 347 347 347 346 346 345 345 345 345 343 340 338 337 335 334 332 331 330 329 329 328 327 327 325
178 179 178 179 176 180 168 172 176 176 171 168 175 176 173 177 163 154 136 110 53 10 8 8 118 124 39 79 190 107 7 342 336 303 21 53 77 33 6 42 15 1 13 356 335 342 342 347 340 328 326 328 343 345 344 341 341 344 346 347 346 347 349 348 346 345 344 345 345 344 341 339 337 335 333 331 329 328 327 326 325 324 323 322 322
178 180 179 180 178 174 175 177 174 179 173 176 180 183 181 178 169 158 161 144 156 141 333 8 342 204 153 107 55 32 216 239 357 288 341 0 24 348 48 37 15 12 5 317 324 329 335 335 321 317 312 326 336 341 338 338 340 339 340 343 339 348 350 347 345 344 344 344 343 340 338 337 334 331 329 328 327 325 324 323 322 322 320 320 320
180 181 181 174 179 178 175 172 178 178 184 184 173 161 181 181 190 172 155 173 139 138 125 290 341 6 65 132 163 173 169 219 109 267 327 1 316 307 162 296 154 23 319 299 304 310 322 316 308 300 305 319 329 336 339 334 332 333 336 335 344 349 349 347 345 344 342 341 339 338 336 334 332 330 328 327 326 325 325 324 323 322 322 321 320
183 182 182 180 176 176 176 180 178 178 176 167 182 191 186 186 175 176 173 144 134 134 158 176 52 10 39 58 73 80 121 125 192 71 334 318 2 320 304 288 224 186 307 279 271 286 292 295 292 291 297 306 328 328 333 326 326 330 335 337 344 348 348 349 347 341 338 337 336 335 333 330 329 327 325 324 323 322 321 320 319 318 317 316 315
181 184 182 179 176 176 177 177 178 182 177 186 189 185 171 179 178 175 148 165 161 146 162 173 157 181 123 88 84 77 75 83 125 153 159 237 305 320 306 317 315 286 297 265 256 273 281 286 289 293 290 294 309 320 312 315 313 324 327 331 345 348 350 348 343 338 336 335 333 330 328 326 325 323 322 320 320 320 319 317 316 314 313 312 310
187 183 183 181 178 179 177 178 180 182 183 182 187 180 183 175 173 171 174 170 166 152 148 179 172 161 144 98 100 98 93 92 125 126 150 165 268 226 264 311 262 264 255 227 267 267 260 285 284 282 278 287 291 278 287 295 314 322 324 332 351 353 349 345 338 334 331 329 327 325 324 323 321 319 318 318 317 316 315 315 314 313 313 311 309
189 186 183 182 180 177 179 183 184 179 179 184 178 181 185 188 186 177 171 167 160 160 171 170 178 165 167 151 139 121 90 98 143 150 173 183 228 235 288 321 325 253 231 269 275 255 285 283 284 276 277 272 268 265 275 298 319 323 323 10 5 356 345 335 330 329 327 325 324 322 320 318 316 315 315 314 313 312 311 311 312 313 312 310 308
183 189 186 182 183 181 183 185 179 177 179 178 187 184 185 184 176 167 172 168 165 159 152 166 161 166 168 170 169 171 172 171 183 181 160 167 224 254 167 160 211 300 316 51 317 302 287 288 279 275 271 273 264 258 272 292 314 34 34 10 357 345 337 333 332 330 327 326 325 322 321 318 316 315 314 313 312 310 309 309 309 308 307 305 304
187 187 190 186 183 186 182 176 180 180 185 183 179 182 179 173 172 176 175 170 160 156 161 165 174 175 182 181 177 165 150 144 163 157 156 162 161 275 304 265 266 220 280 315 268 277 288 261 259 261 261 248 258 221 202 80 50 29 37 3 348 342 335 332 330 328 326 326 325 323 321 319 317 315 313 311 310 309 308 307 306 306 304 303 302
197 193 195 186 183 180 181 184 185 187 180 176 182 179 176 177 177 178 175 177 178 172 173 183 177 179 182 180 164 162 158 145 139 141 128 124 128 201 315 40 296 292 228 10 304 222 234 225 249 256 235 238 205 119 110 97 55 7 14 358 342 336 331 328 328 326 326 325 324 322 320 319 317 315 314 312 310 308 308 307 306 305 303 303 302
195 201 193 183 187 189 184 187 186 181 179 181 179 179 177 180 180 181 185 185 175 182 184 179 183 179 157 162 174 167 160 157 150 142 148 138 147 175 244 353 337 292 314 333 324 3 323 248 235 241 246 195 146 136 129 95 49 6 360 349 334 333 329 328 328 328 327 326 324 323 321 319 317 316 314 312 311 311 309 308 306 304 303 301 300
197 201 183 188 190 184 186 185 184 181 178 177 178 179 182 181 186 189 186 181 183 177 180 173 176 174 175 173 165 163 164 161 153 155 150 157 151 153 151 201 314 254 274 294 301 255 257 271 217 228 193 171 153 135 122 113 4 354 353 343 330 332 331 331 329 329 327 326 324 322 320 319 317 316 315 313 312 311 309 308 305 304 303 302 300
196 186 194 189 190 190 187 189 182 180 180 180 179 180 182 183 186 187 191 180 178 180 177 173 177 175 172 163 160 173 164 161 156 153 152 152 150 151 153 162 172 275 288 281 259 269 245 240 303 212 157 155 157 152 144 81 7 348 353 343 335 328 330 329 328 327 326 324 323 322 319 317 317 315 313 312 310 309 307 306 304 301 299 298 296
195 187 186 193 195 192 189 187 184 182 180 182 181 182 181 184 186 186 190 180 177 182 169 176 176 168 168 177 174 167 167 156 153 150 151 150 156 161 168 173 175 181 227 260 243 233 283 197 203 299 134 166 132 339 20 13 340 351 342 336 323 319 322 323 324 323 321 320 319 317 315 313 312 311 309 308 307 307 305 303 301 299 298 296 295
184 187 187 190 194 193 192 190 186 182 184 181 182 182 178 187 187 190 187 170 174 167 176 171 172 168 164 166 173 173 168 159 158 155 153 157 158 166 172 174 173 194 202 230 265 214 269 240 214 241 212 303 352 351 360 344 348 346 337 333 327 320 320 322 321 319 317 315 313 310 308 307 306 305 305 304 304 303 302 301 299 298 297 295 294
188 184 187 189 192 195 194 192 187 187 183 183 180 180 182 183 183 184 176 173 175 177 176 171 171 166 169 175 178 177 172 161 154 153 154 154 159 160 171 168 194 193 209 230 274 250 222 260 289 292 225 304 351 333 356 351 340 329 328 324 322 317 317 317 315 313 312 311 309 308 308 307 306 304 303 302 300 300 299 298 298 297 296 295 294
188 186 188 190 191 192 195 193 191 190 187 185 182 181 180 186 181 180 179 173 177 178 173 171 167 172 171 178 186 180 176 158 155 154 154 154 152 160 163 174 188 193 196 222 241 255 248 267 283 293 308 323 345 330 324 323 308 304 298 296 297 303 306 301 300 299 300 300 299 299 298 299 299 299 298 298 297 297 297 296 295 294 294 293 292
187 188 189 191 189 191 191 192 192 192 191 187 185 180 181 183 183 182 173 179 178 176 169 172 173 172 178 181 186 187 173 162 159 153 152 152 152 157 164 169 188 190 186 222 245 271 268 268 278 276 283 55 314 303 298 301 302 301 291 283 282 283 285 284 284 283 288 291 292 293 294 296 296 294 295 294 294 294 293 294 293 292 291 291 292
184 189 190 188 188 187 189 192 193 193 193 192 186 182 184 183 183 180 180 180 179 175 173 178 177 178 176 176 184 181 180 162 156 157 153 157 160 161 178 175 193 197 196 207 248 261 281 268 284 267 261 253 264 262 267 295 295 293 290 290 285 282 284 283 284 282 282 288 289 289 292 293 292 293 292 293 292 292 293 294 292 291 290 288 288
188 188 188 186 186 186 189 190 191 193 193 191 189 188 189 185 183 183 183 182 181 177 180 183 179 173 172 179 182 176 170 162 163 159 157 163 163 174 186 185 194 205 202 214 233 257 270 281 271 288 259 248 228 268 270 268 273 276 286 288 290 287 281 283 282 284 286 287 288 288 292 291 290 290 290 291 292 291 291 291 289 289 289 287 285
187 191 186 184 183 186 188 190 192 192 190 191 190 193 191 187 185 185 183 186 186 184 182 178 176 175 177 173 182 176 171 165 166 163 166 162 172 178 184 194 194 204 211 211 229 250 278 290 256 279 288 291 263 253 271 275 283 281 271 283 274 276 277 273 272 278 276 278 282 287 289 287 289 291 291 291 289 290 288 286 286 287 286 285 285
192 185 188 182 183 184 190 192 190 190 192 188 188 190 191 190 189 185 186 187 188 186 184 180 177 175 175 180 173 173 173 167 170 169 168 172 177 177 189 190 193 199 212 219 233 240 258 266 284 271 280 273 263 263 259 298 300 287 286 279 283 283 278 265 266 265 270 276 280 281 282 283 285 289 289 288 288 286 284 284 285 286 285 285 285
190 192 186 184 187 190 192 191 189 188 186 188 189 188 186 183 185 188 189 190 188 183 180 179 176 176 176 173 174 174 178 176 176 170 171 176 177 184 186 188 185 202 213 228 234 240 249 262 274 293 275 299 296 280 286 285 301 303 294 285 285 279 282 290 272 271 274 270 276 269 270 274 275 276 282 283 282 282 285 285 286 285 283 284 284
190 188 190 190 193 190 191 187 189 187 185 184 185 184 184 183 183 185 185 187 185 180 181 176 172 172 173 171 174 179 182 181 174 174 172 175 182 185 186 182 196 201 221 231 235 244 252 270 276 275 291 279 289 302 261 273 279 280 300 312 301 284 291 297 301 295 287 279 266 270 275 278 281 283 286 285 283 282 283 284 284 284 285 284 284
192 192 191 192 193 190 189 187 189 184 184 184 184 183 184 183 181 183 183 181 178 177 172 171 169 171 173 174 177 182 183 183 177 171 171 175 169 182 181 179 191 209 227 235 240 246 261 274 281 296 299 302 297 267 275 271 288 286 299 313 310 315 311 301 300 306 301 284 286 280 262 269 273 271 271 273 275 274 277 279 279 280 281 281 280
197 195 192 189 185 191 190 189 184 183 186 188 185 183 180 183 183 180 178 176 175 173 170 169 169 169 171 177 181 184 185 185 182 178 177 172 166 170 181 176 199 217 228 233 235 248 267 280 289 289 293 298 295 308 315 320 323 316 315 313 303 308 310 307 300 280 283 292 292 282 280 261 267 268 264 258 258 260 264 267 271 273 277 277 277
194 191 189 189 189 190 187 188 186 186 190 188 187 181 179 176 177 176 171 174 174 173 170 168 170 174 175 178 185 189 191 191 189 187 185 186 184 172 178 187 203 214 218 225 239 247 260 270 273 300 301 297 305 308 306 308 308 312 312 314 306 308 306 300 299 295 289 293 292 285 277 252 266 273 261 264 268 262 265 260 258 264 269 274 276
192 188 184 189 194 190 188 186 187 191 190 187 183 184 182 176 171 173 172 172 172 171 175 173 174 174 177 178 180 193 191 192 192 192 190 192 195 195 199 206 209 203 205 224 232 237 261 268 283 289 290 294 298 303 304 311 311 312 310 304 300 305 309 314 310 319 143 340 309 303 297 150 226 289 284 270 265 265 265 262 265 271 278 277 278
192 187 192 195 188 187 188 188 190 190 190 184 184 184 181 177 171 170 171 169 170 173 174 176 173 171 173 174 181 187 190 189 185 192 196 197 200 208 215 221 227 234 238 239 250 255 254 269 275 272 290 289 298 301 303 315 312 306 301 299 301 304 303 301 298 298 315 336 316 308 296 296 307 289 290 282 275 269 268 272 278 282 283 280 279
183 191 196 186 192 189 185 188 191 189 191 184 184 183 180 177 173 167 172 169 170 173 174 174 173 172 170 172 175 180 186 186 183 187 184 196 206 211 217 223 231 237 247 256 260 265 275 272 275 280 276 289 293 294 304 307 306 301 303 300 299 290 293 289 293 304 313 335 311 296 293 298 326 285 284 288 291 281 279 281 281 283 280 280 278
189 194 191 192 188 189 190 189 189 187 185 184 183 182 180 177 173 166 168 169 171 172 172 173 172 171 174 172 170 173 177 185 185 181 173 179 188 200 208 210 211 251 253 260 264 269 271 270 272 273 279 282 281 288 291 294 296 295 302 296 297 295 299 295 303 300 298 315 295 295 294 293 348 300 288 287 292 282 278 280 284 283 281 279 278
191 192 191 192 193 189 187 184 183 185 184 183 183 182 180 176 171 160 164 167 168 170 169 171 173 172 169 171 171 171 173 181 185 180 173 175 174 184 190 202 215 218 230 237 243 251 260 262 264 269 273 271 274 278 283 283 286 289 289 299 317 310 302 301 294 288 291 292 283 281 278 291 335 296 283 285 286 279 270 277 279 280 280 278 277
194 187 195 192 188 186 184 180 182 185 182 186 184 183 179 175 169 160 165 168 168 168 167 172 172 169 171 172 171 176 177 181 185 185 180 168 173 185 194 202 208 217 222 235 251 257 261 261 258 257 254 266 277 284 291 297 298 300 309 315 314 309 305 300 292 300 287 290 269 274 280 292 312 297 292 285 279 275 278 271 274 278 279 277 277
187 192 194 190 187 183 182 184 183 182 178 188 186 183 180 176 166 152 164 164 168 170 173 172 170 172 175 177 177 174 177 177 184 187 186 181 185 192 195 197 197 210 227 239 261 269 271 272 275 281 286 288 291 292 293 295 298 310 318 308 296 307 300 300 295 297 286 294 265 270 279 288 295 289 291 295 301 301 296 295 284 278 278 276 276
190 194 182 183 185 184 184 185 183 177 182 190 189 186 183 181 164 163 168 167 168 170 171 173 172 177 180 181 178 176 179 180 185 190 190 187 184 185 180 186 198 218 236 243 253 259 271 279 281 284 284 286 288 293 302 302 297 300 301 287 293 305 285 282 286 293 296 288 280 273 275 278 301 302 300 297 293 281 280 286 290 286 282 277 276
189 175 175 178 178 179 185 184 183 182 179 191 192 190 184 181 164 162 166 168 168 171 170 171 174 172 182 187 184 182 182 183 190 192 193 190 176 177 178 180 195 223 237 242 250 263 275 278 270 269 278 288 300 301 295 296 294 294 283 277 289 277 276 278 278 290 293 286 240 288 293 296 298 292 303 302 293 291 284 278 284 292 292 291 280